Weather History for Russell, KS

Change the Weather History Date:

Saturday, April 27, 2013

  Actual Average Record
Temperature  
Mean Temperature 60 °F -  
Max Temperature 73 °F 68 °F 93 °F (1989)
Min Temperature 48 °F 44 °F 29 °F (1988)
Degree Days  
Heating Degree Days 4    
Growing Degree Days 10 (Base 50)    
Moisture  
Dew Point 47 °F    
Average Humidity 78    
Maximum Humidity 96    
Minimum Humidity 30    
Precipitation  
Precipitation 0.00 in - - ()
Sea Level Pressure  
Sea Level Pressure 30.10 in    
Wind  
Wind Speed 3 mph (ENE)    
Max Wind Speed 12 mph    
Max Gust Speed -    
Visibility 7 miles    
Events      
Averages and records for this station are not official NWS values.
T = Trace of Precipitation, MM = Missing Value Source: NWS Daily Summary

Daily Weather History Graph

Daily Weather History Graph

Search for Another Location

Airport:

Trip Planner

Search our weather history database for the weather conditions in past years. The results will help you decide how hot, cold, wet, or windy it might be!

Date:

Astronomy

Apr. 27, 2013 Rise Set
Actual Time 6:42 AM CDT 8:24 PM CDT
Civil Twilight 6:13 AM CDT 8:52 PM CDT
Nautical Twilight 5:39 AM CDT 9:27 PM CDT
Astronomical Twilight 5:02 AM CDT 10:03 PM CDT
Moon 10:54 PM CDT (4/27) 8:02 AM CDT (4/27)
Length of Visible Light 14h 39m
Length of Day
13h 42m
Waning Gibbous, 95% of the Moon is Illuminated
Apr 27
Waning Gibbous
May 2
Last Quarter
May 9
New
May 17
First Quarter
May 24
Full

Hourly Weather History & Observations

Time (CDT) Temp. Dew Point Humidity Pressure Visibility Wind Dir Wind Speed Gust Speed Precip Events Conditions
12:53 AM 50.0 °F 46.9 °F 89% 30.17 in 6.0 mi Calm Calm - N/A   Overcast
1:53 AM 48.9 °F 46.9 °F 93% 30.16 in 6.0 mi Calm Calm - N/A   Overcast
2:53 AM 48.9 °F 46.9 °F 93% 30.15 in 8.0 mi Calm Calm - N/A   Overcast
3:53 AM 48.9 °F 46.0 °F 90% 30.14 in 7.0 mi NNW 5.8 mph - N/A   Overcast
4:53 AM 48.9 °F 46.9 °F 93% 30.14 in 6.0 mi NNW 4.6 mph - N/A   Overcast
5:53 AM 48.9 °F 46.9 °F 93% 30.14 in 5.0 mi ENE 4.6 mph - N/A   Overcast
6:23 AM 48.2 °F 46.4 °F 93% 30.13 in 4.0 mi NE 3.5 mph - N/A   Overcast
6:53 AM 48.0 °F 46.9 °F 96% 30.15 in 4.0 mi Calm Calm - N/A   Overcast
7:16 AM 48.2 °F 46.4 °F 93% 30.15 in 2.0 mi NNE 3.5 mph - N/A   Overcast
7:43 AM 48.2 °F 46.4 °F 93% 30.15 in 1.8 mi Calm Calm - N/A   Overcast
7:53 AM 48.0 °F 46.9 °F 96% 30.17 in 2.0 mi NNE 3.5 mph - N/A   Overcast
8:01 AM 48.2 °F 46.4 °F 93% 30.15 in 1.8 mi Calm Calm - N/A   Overcast
8:13 AM 48.2 °F 46.4 °F 93% 30.16 in 2.0 mi ENE 3.5 mph - N/A   Overcast
8:50 AM 48.2 °F 46.4 °F 93% 30.16 in 1.5 mi East 3.5 mph - N/A   Overcast
8:53 AM 48.9 °F 46.9 °F 93% 30.17 in 1.8 mi Calm Calm - N/A   Overcast
9:20 AM 48.2 °F 46.4 °F 93% 30.16 in 2.5 mi East 3.5 mph - N/A   Overcast
9:28 AM 50.0 °F 46.4 °F 87% 30.16 in 3.0 mi Calm Calm - N/A   Overcast
9:53 AM 50.0 °F 46.9 °F 89% 30.17 in 6.0 mi Calm Calm - N/A   Overcast
10:08 AM 50.0 °F 46.4 °F 87% 30.15 in 6.0 mi Calm Calm - N/A   Overcast
10:53 AM 53.1 °F 48.0 °F 83% 30.16 in 10.0 mi Calm Calm - N/A   Overcast
11:39 AM 55.4 °F 48.2 °F 77% 30.15 in 10.0 mi NW 4.6 mph - N/A   Overcast
11:53 AM 55.9 °F 48.9 °F 77% 30.15 in 10.0 mi Calm Calm - N/A   Mostly Cloudy
12:11 PM 60.8 °F 50.0 °F 68% 30.14 in 10.0 mi Variable 4.6 mph - N/A   Partly Cloudy
12:53 PM 63.0 °F 50.0 °F 63% 30.12 in 10.0 mi Calm Calm - N/A   Clear
1:53 PM 66.0 °F 48.9 °F 54% 30.09 in 10.0 mi Calm Calm - N/A   Clear
2:53 PM 68.0 °F 48.0 °F 49% 30.06 in 10.0 mi Calm Calm - N/A   Clear
3:53 PM 71.1 °F 41.0 °F 34% 30.02 in 10.0 mi ENE 9.2 mph - N/A   Clear
4:53 PM 73.0 °F 42.1 °F 33% 29.99 in 10.0 mi NE 8.1 mph - N/A   Clear
5:53 PM 72.0 °F 39.0 °F 30% 29.98 in 10.0 mi Calm Calm - N/A   Clear
6:53 PM 70.0 °F 41.0 °F 35% 29.96 in 10.0 mi SE 8.1 mph - N/A   Clear
7:53 PM 66.0 °F 48.0 °F 52% 29.96 in 10.0 mi SSE 11.5 mph - N/A   Clear
8:53 PM 59.0 °F 50.0 °F 72% 29.97 in 10.0 mi SE 9.2 mph - N/A   Clear
9:53 PM 55.9 °F 48.9 °F 77% 29.98 in 10.0 mi SE 10.4 mph - N/A   Clear
10:53 PM 52.0 °F 48.0 °F 86% 29.98 in 10.0 mi SSE 8.1 mph - N/A   Clear
11:53 PM 54.0 °F 48.9 °F 83% 29.97 in 10.0 mi SSE 11.5 mph - N/A   Clear